• In Belgium
  • List of Countries
  • For 7 days
  • Water Temperature
  • Satellite Maps
  • Weather Map
  • Weather Widgets
  • user-avatar
    Login

    Hourly Weather Horog

    Today, 22 April, Sunday

    Time Temperature Precipitation Wind Pressure Humidity
    00:00 -9°C° 0 mm 2 mps 484 mmHg 60%
    01:00 -10°C° 0 mm 2 mps 484 mmHg 59%
    02:00 -10°C° 0 mm 2 mps 483 mmHg 58%
    03:00 -10°C° 0 mm 2 mps 483 mmHg 55%
    04:00 -10°C° 0 mm 2 mps 483 mmHg 52%
    05:00 -13°C° 0 mm 3 mps 483 mmHg 51%
    06:00 -9°C° 0 mm 2 mps 484 mmHg 52%
    07:00 -8°C° 0 mm 2 mps 485 mmHg 53%
    08:00 -6°C° 0 mm 2 mps 486 mmHg 54%
    09:00 -5°C° 0 mm 2 mps 487 mmHg 53%
    10:00 -1°C° 0 mm 1 mps 488 mmHg 52%
    11:00 +1°C° 0 mm 1 mps 489 mmHg 54%
    12:00 +1°C° 0 mm 1 mps 489 mmHg 53%
    13:00 +2°C° 0 mm 1 mps 490 mmHg 53%
    14:00 +3°C° 0 mm 1 mps 490 mmHg 52%
    15:00 +2°C° 0 mm 1 mps 490 mmHg 51%
    16:00 +2°C° 0 mm 1 mps 490 mmHg 50%
    17:00 +1°C° 0 mm 1 mps 489 mmHg 48%
    18:00 -1°C° 0 mm 1 mps 488 mmHg 48%
    19:00 -2°C° 0 mm 1 mps 488 mmHg 47%
    20:00 -4°C° 0 mm 1 mps 487 mmHg 47%
    21:00 -6°C° 0 mm 1 mps 487 mmHg 46%
    22:00 -7°C° 0 mm 2 mps 487 mmHg 45%
    23:00 -7°C° 0 mm 2 mps 487 mmHg 43%

    Tomorrow, 23 April, Monday

    Time Temperature Precipitation Wind Pressure Humidity
    00:00 -7°C° 0 mm 2 mps 487 mmHg 42%
    01:00 -8°C° 0 mm 2 mps 487 mmHg 41%
    02:00 -8°C° 0 mm 2 mps 487 mmHg 39%
    03:00 -8°C° 0 mm 2 mps 487 mmHg 38%
    04:00 -8°C° 0 mm 2 mps 487 mmHg 37%
    05:00 -8°C° 0 mm 2 mps 487 mmHg 36%
    06:00 -7°C° 0 mm 2 mps 488 mmHg 39%
    07:00 -5°C° 0 mm 2 mps 489 mmHg 41%
    08:00 -4°C° 0 mm 2 mps 490 mmHg 44%
    09:00 -2°C° 0 mm 2 mps 490 mmHg 44%
    10:00 +1°C° 0 mm 1 mps 491 mmHg 45%
    11:00 +3°C° 0 mm 1 mps 492 mmHg 45%
    12:00 +4°C° 0 mm 1 mps 492 mmHg 47%
    13:00 +4°C° 0 mm 1 mps 492 mmHg 48%
    14:00 +5°C° 0 mm 1 mps 493 mmHg 50%
    15:00 +5°C° 0 mm 1 mps 492 mmHg 49%
    16:00 +5°C° 0 mm 1 mps 492 mmHg 49%
    17:00 +4°C° 0 mm 1 mps 492 mmHg 49%
    18:00 +3°C° 0 mm 1 mps 491 mmHg 50%
    19:00 +1°C° 0 mm 1 mps 490 mmHg 51%
    20:00 -1°C° 0 mm 1 mps 489 mmHg 52%
    21:00 -1°C° 0 mm 1 mps 489 mmHg 51%
    22:00 -3°C° 0 mm 2 mps 490 mmHg 50%
    23:00 -3°C° 0 mm 2 mps 490 mmHg 48%

    Day after tomorrow, 24 April, Tuesday

    Time Temperature Precipitation Wind Pressure Humidity
    00:00 -4°C° 0 mm 2 mps 489 mmHg 47%
    01:00 -4°C° 0 mm 2 mps 489 mmHg 46%
    02:00 -4°C° 0 mm 2 mps 488 mmHg 45%
    03:00 -5°C° 0 mm 2 mps 488 mmHg 44%
    04:00 -5°C° 0 mm 2 mps 488 mmHg 42%
    05:00 -5°C° 0 mm 2 mps 488 mmHg 41%
    06:00 -4°C° 0 mm 2 mps 489 mmHg 42%
    07:00 -2°C° 0 mm 2 mps 490 mmHg 43%
    08:00 -1°C° 0 mm 2 mps 491 mmHg 44%
    09:00 +2°C° 0 mm 2 mps 491 mmHg 45%
    10:00 +3°C° 0 mm 2 mps 492 mmHg 46%
    11:00 +6°C° 0 mm 1 mps 492 mmHg 47%
    12:00 +6°C° 0 mm 1 mps 493 mmHg 46%
    13:00 +7°C° 0 mm 1 mps 493 mmHg 45%
    14:00 +8°C° 0 mm 1 mps 493 mmHg 45%
    15:00 +7°C° 0 mm 1 mps 493 mmHg 44%
    16:00 +7°C° 0 mm 1 mps 492 mmHg 43%
    17:00 +7°C° 0 mm 1 mps 492 mmHg 42%
    18:00 +5°C° 0 mm 1 mps 492 mmHg 45%
    19:00 +4°C° 0 mm 1 mps 491 mmHg 48%
    20:00 +3°C° 0 mm 1 mps 490 mmHg 51%
    21:00 +2°C° 0 mm 1 mps 490 mmHg 52%
    22:00 +2°C° 0 mm 1 mps 490 mmHg 54%
    23:00 +1°C° 0 mm 1 mps 490 mmHg 55%

    25 April, Wednesday

    Time Temperature Precipitation Wind Pressure Humidity
    00:00 +1°C° 0 mm 1 mps 489 mmHg 55%
    01:00 +1°C° 0 mm 1 mps 489 mmHg 55%
    02:00 0°C° 0 mm 1 mps 489 mmHg 55%
    03:00 0°C° 0 mm 1 mps 488 mmHg 58%
    04:00 -1°C° 0 mm 1 mps 488 mmHg 60%
    05:00 -2°C° 0 mm 0 mps 487 mmHg 63%
    06:00 -1°C° 0.1 mm 1 mps 488 mmHg 62%
    07:00 0°C° 0.1 mm 1 mps 489 mmHg 61%
    08:00 +1°C° 0.1 mm 1 mps 489 mmHg 60%
    09:00 +2°C° 0.1 mm 1 mps 490 mmHg 62%
    10:00 +2°C° 0.1 mm 1 mps 490 mmHg 64%
    11:00 +2°C° 0.1 mm 2 mps 490 mmHg 65%
    12:00 +2°C° 0.5 mm 2 mps 490 mmHg 69%
    13:00 +2°C° 0.5 mm 2 mps 490 mmHg 74%
    14:00 +2°C° 0.5 mm 2 mps 489 mmHg 78%
    15:00 +2°C° 0.6 mm 2 mps 489 mmHg 79%
    16:00 +2°C° 0.6 mm 2 mps 489 mmHg 81%
    17:00 +1°C° 0.6 mm 2 mps 489 mmHg 82%
    18:00 +1°C° 0.5 mm 2 mps 489 mmHg 84%
    19:00 -1°C° 0.5 mm 2 mps 490 mmHg 86%
    20:00 -1°C° 0.5 mm 2 mps 490 mmHg 88%
    21:00 -1°C° 0.2 mm 2 mps 490 mmHg 89%
    22:00 -2°C° 0.2 mm 2 mps 489 mmHg 90%
    23:00 -2°C° 0.2 mm 2 mps 489 mmHg 91%

    26 April, Thursday

    Time Temperature Precipitation Wind Pressure Humidity
    00:00 -1°C° 0.1 mm 1 mps 489 mmHg 91%
    01:00 -1°C° 0.1 mm 1 mps 488 mmHg 92%
    02:00 -2°C° 0.1 mm 1 mps 488 mmHg 92%
    03:00 -3°C° 0 mm 1 mps 487 mmHg 91%
    04:00 -3°C° 0 mm 1 mps 487 mmHg 90%
    05:00 -4°C° 0 mm 1 mps 486 mmHg 88%
    06:00 -3°C° 0 mm 1 mps 487 mmHg 84%
    07:00 -2°C° 0 mm 1 mps 487 mmHg 79%
    08:00 -2°C° 0 mm 1 mps 488 mmHg 75%
    09:00 -1°C° 0 mm 1 mps 488 mmHg 68%
    10:00 0°C° 0 mm 1 mps 489 mmHg 61%
    11:00 +1°C° 0 mm 1 mps 489 mmHg 54%
    12:00 +2°C° 0 mm 1 mps 490 mmHg 52%
    13:00 +3°C° 0 mm 1 mps 490 mmHg 50%
    14:00 +2°C° 0 mm 2 mps 490 mmHg 49%
    15:00 +2°C° 0 mm 2 mps 490 mmHg 49%
    16:00 +2°C° 0 mm 2 mps 490 mmHg 49%
    17:00 +2°C° 0 mm 2 mps 490 mmHg 49%
    18:00 +2°C° 0 mm 1 mps 489 mmHg 54%
    19:00 0°C° 0 mm 1 mps 488 mmHg 59%
    20:00 -1°C° 0 mm 1 mps 488 mmHg 64%
    21:00 -2°C° 0 mm 1 mps 488 mmHg 67%
    22:00 -2°C° 0 mm 1 mps 488 mmHg 70%
    23:00 -3°C° 0 mm 1 mps 487 mmHg 73%

    27 April, Friday

    Time Temperature Precipitation Wind Pressure Humidity
    00:00 -3°C° 0 mm 1 mps 487 mmHg 74%
    01:00 -4°C° 0 mm 1 mps 487 mmHg 75%
    02:00 -4°C° 0 mm 1 mps 487 mmHg 76%
    03:00 -4°C° 0 mm 1 mps 487 mmHg 75%
    04:00 -4°C° 0 mm 1 mps 487 mmHg 74%
    05:00 -6°C° 0 mm 1 mps 487 mmHg 73%
    06:00 -4°C° 0 mm 1 mps 488 mmHg 69%
    07:00 -2°C° 0 mm 1 mps 489 mmHg 65%
    08:00 -1°C° 0 mm 1 mps 490 mmHg 61%
    09:00 0°C° 0 mm 1 mps 490 mmHg 56%
    10:00 -1°C° 0 mm 2 mps 491 mmHg 51%
    11:00 +1°C° 0 mm 2 mps 492 mmHg 46%
    12:00 +2°C° 0 mm 2 mps 492 mmHg 45%
    13:00 +1°C° 0 mm 3 mps 492 mmHg 43%
    14:00 +2°C° 0 mm 3 mps 492 mmHg 41%
    15:00 +1°C° 0 mm 3 mps 492 mmHg 44%
    16:00 +1°C° 0 mm 3 mps 491 mmHg 47%
    17:00 0°C° 0 mm 3 mps 491 mmHg 50%
    18:00 -1°C° 0.1 mm 3 mps 491 mmHg 55%
    19:00 -2°C° 0.1 mm 2 mps 491 mmHg 60%
    20:00 -3°C° 0.1 mm 2 mps 490 mmHg 65%
    21:00 -4°C° 0 mm 2 mps 490 mmHg 68%
    22:00 -2°C° 0 mm 1 mps 490 mmHg 72%
    23:00 -3°C° 0 mm 1 mps 489 mmHg 75%
    Show more